Theta_e
316 316 316 316 318 320 319 320 319 318 317 318 318 316 316 314 314 317 318 318 319 318 317 318 318 318 318 319 319 320 319 320 320 321 323 324 325 325 325 327 328 331 331 330 331 330 329 330 332 332 327 322 319 321 322 316 317 318 315 315 313 311 311 315 324 326 326 327 324 324 324 322 322 323 323 324 324 324 322 320 318 315 313 312 309 313
316 315 316 317 320 320 320 319 319 318 318 317 316 315 315 314 315 317 318 319 319 318 316 318 319 318 320 319 319 320 319 321 321 321 322 323 323 323 324 326 328 330 329 329 331 330 329 328 326 324 321 319 318 319 319 317 317 317 317 317 313 310 309 316 327 327 325 325 323 323 323 321 322 322 322 324 323 320 314 309 309 310 309 308 307 310
315 314 317 319 319 318 318 318 318 318 319 317 316 315 314 315 315 318 320 319 318 317 316 317 318 318 320 319 320 321 320 320 319 320 322 321 322 322 324 326 327 329 328 329 332 330 329 328 323 319 320 319 319 318 318 319 320 318 321 319 314 311 310 314 323 327 325 324 323 322 321 321 322 323 322 322 321 318 312 307 308 310 308 314 317 315
314 316 319 319 317 317 317 318 318 318 318 317 316 314 313 316 315 315 318 320 319 319 317 317 318 319 320 319 319 322 320 320 319 320 321 321 322 322 322 325 326 329 330 331 334 333 330 329 323 319 321 319 318 319 318 319 320 320 324 322 314 310 311 312 316 324 325 321 320 322 320 321 322 320 317 316 316 316 314 311 311 310 310 318 322 321
315 317 318 317 317 317 318 319 318 317 316 317 318 316 315 316 316 316 318 320 321 320 319 317 316 316 318 318 319 320 320 320 320 320 323 324 324 323 323 324 324 327 329 329 333 334 332 331 326 319 320 320 319 319 318 319 319 322 325 321 314 311 311 311 312 319 320 314 315 317 315 316 317 316 316 317 318 317 317 315 312 309 312 319 322 322
315 317 317 316 316 316 317 319 319 317 315 316 318 318 317 317 318 319 319 320 318 317 319 317 314 314 316 317 318 320 320 320 321 321 322 323 322 323 323 323 323 326 327 327 328 331 332 333 330 323 319 319 320 320 318 318 319 321 324 321 316 312 311 311 311 312 313 310 312 314 314 315 317 318 320 321 320 319 320 316 312 311 313 318 320 321
315 316 316 316 317 317 317 317 319 319 315 314 318 319 318 318 318 319 319 318 315 314 318 319 315 314 315 317 318 320 320 320 320 320 319 319 319 320 320 321 322 324 325 325 326 328 331 334 333 331 324 319 320 321 319 319 319 320 322 322 318 314 311 311 312 311 309 310 313 315 317 318 319 320 321 321 320 321 319 314 311 310 310 314 317 319
317 316 316 316 317 317 316 316 318 320 316 315 319 319 318 318 317 319 318 317 316 315 318 319 317 315 313 315 319 320 320 320 319 319 319 319 319 319 318 319 320 322 323 323 325 327 331 332 334 334 331 325 321 320 320 320 320 319 321 322 320 316 313 311 312 311 309 311 313 317 320 319 319 320 321 320 320 320 317 312 313 314 312 314 316 317
318 317 316 316 316 316 316 317 318 319 317 317 320 319 318 319 318 319 318 316 317 316 315 317 317 315 313 315 317 319 319 319 319 319 319 320 319 319 318 319 319 321 323 323 324 326 328 330 332 334 333 332 327 322 319 320 320 320 320 321 320 318 314 311 312 311 310 312 313 318 321 319 319 321 320 319 320 318 314 312 315 318 317 315 314 314
317 316 316 316 316 315 316 317 317 318 318 318 319 318 317 319 319 319 318 316 317 317 315 316 316 315 314 315 316 318 318 318 319 319 320 320 320 319 320 321 320 320 321 321 322 323 324 327 330 333 333 333 332 327 321 320 320 320 320 320 320 320 316 312 312 311 310 313 316 319 321 319 319 321 318 318 320 318 315 314 313 315 317 315 312 311
316 315 315 315 315 315 315 317 317 317 317 318 318 317 317 317 318 319 318 316 316 316 316 316 316 315 315 314 314 317 319 319 320 319 320 321 319 320 320 320 319 319 320 320 320 321 322 323 325 330 333 333 333 331 326 322 319 320 321 320 320 320 318 314 312 312 310 311 316 320 320 319 320 320 318 319 319 319 319 317 315 316 318 317 313 309
316 315 314 314 314 315 314 315 316 316 315 317 317 316 316 316 318 318 317 316 316 315 315 315 316 316 314 314 314 317 319 319 320 319 319 320 320 321 320 319 319 319 320 319 320 321 323 323 322 326 331 333 333 332 330 326 321 320 321 320 321 320 319 316 312 311 311 310 313 320 321 319 320 319 317 319 319 319 320 319 318 319 319 317 314 310
315 315 314 315 315 314 314 313 314 316 315 316 316 316 316 315 317 317 316 316 315 315 315 315 316 315 315 315 316 318 318 318 318 318 319 320 320 321 319 319 319 319 320 319 321 323 324 324 323 324 329 333 333 331 332 329 324 323 323 321 321 320 318 317 314 311 311 310 310 317 321 319 320 317 315 318 320 319 320 320 319 319 319 319 316 314
314 314 315 315 314 314 314 312 312 314 315 315 315 315 315 314 316 316 315 314 314 314 315 316 316 315 313 314 317 319 318 318 318 318 319 319 320 320 318 318 319 320 321 321 322 324 326 326 326 327 330 332 331 330 331 330 327 325 324 323 322 322 320 317 316 312 311 311 310 314 320 320 320 318 314 316 320 319 319 319 320 319 318 319 318 316
312 312 313 314 314 314 314 313 314 314 315 315 316 315 315 314 316 315 314 313 313 313 314 316 316 314 313 316 318 319 319 319 317 318 318 318 319 319 318 319 320 322 323 322 323 325 326 327 327 328 329 330 329 329 329 329 329 327 326 325 325 325 322 318 317 314 311 311 310 313 319 320 320 320 317 316 319 319 318 319 320 319 318 319 319 318
311 311 313 314 315 314 314 314 315 314 313 315 316 314 314 314 315 314 314 314 314 313 314 314 314 314 316 318 319 318 318 317 317 317 318 318 318 319 319 320 321 322 324 324 324 325 326 327 327 327 328 328 327 328 328 328 329 329 328 327 326 326 325 321 319 316 312 310 310 312 318 321 321 321 319 318 318 319 319 319 319 320 318 318 319 319
311 311 313 314 314 314 314 314 315 314 313 314 314 313 315 316 315 313 313 314 314 314 313 313 313 314 315 317 317 316 316 316 316 317 317 318 319 319 319 320 321 322 323 324 324 325 326 327 327 327 326 326 327 327 327 327 328 328 328 328 327 326 326 325 323 318 314 311 310 311 313 318 321 321 321 319 318 319 320 319 319 320 318 318 318 319
313 312 313 314 313 314 315 314 314 314 314 313 312 313 314 315 315 314 314 314 314 314 314 313 313 313 313 314 317 316 316 316 315 316 318 318 318 318 318 319 320 322 322 323 324 325 326 327 327 326 326 326 326 326 327 327 327 327 327 327 327 326 327 327 325 321 316 312 311 311 312 314 318 320 321 320 320 320 321 320 319 319 319 318 317 319
315 312 313 313 313 314 315 314 313 313 315 313 313 314 314 314 313 313 313 314 315 315 314 313 313 312 312 314 317 317 316 316 315 315 317 318 318 318 318 318 320 321 321 322 323 324 324 325 325 325 326 326 326 326 326 326 326 327 327 326 326 326 326 326 326 323 321 318 315 316 317 315 315 317 319 320 321 321 322 321 320 319 320 320 318 318
316 314 312 313 313 314 314 313 312 312 313 313 313 313 313 313 313 312 313 314 314 315 314 314 314 313 314 316 317 317 318 317 316 316 316 317 318 318 317 318 318 319 320 320 321 322 323 323 323 323 324 324 325 325 326 326 326 326 325 326 326 325 325 325 325 324 324 323 320 320 322 321 320 318 318 320 321 321 322 322 321 320 320 320 319 319
315 314 313 313 313 313 313 313 312 312 313 314 314 314 313 313 314 313 314 313 313 314 314 314 314 313 316 318 317 317 318 318 316 316 317 317 317 317 317 317 317 318 318 318 319 320 321 322 322 322 322 323 323 323 323 324 324 324 323 323 324 324 324 324 323 321 322 322 321 321 322 323 323 321 320 320 321 322 322 322 322 321 321 321 321 320
313 313 313 313 312 312 312 314 314 314 314 314 315 314 314 314 314 314 315 314 313 313 313 314 314 314 317 318 316 316 318 318 316 316 317 317 316 317 317 317 317 317 317 317 317 317 318 320 321 321 322 322 322 322 322 322 322 322 322 321 321 322 322 322 322 321 319 319 319 319 320 321 322 322 320 320 321 322 322 322 323 323 322 322 321 320
313 312 312 312 312 311 312 314 314 314 314 314 314 314 314 314 314 314 315 315 314 313 313 313 313 315 318 317 316 317 318 317 317 316 316 316 316 316 316 316 316 316 316 316 316 316 316 316 317 318 319 320 320 321 321 321 321 322 321 321 322 321 320 321 322 322 321 320 319 318 318 318 319 319 319 319 319 320 321 321 322 323 323 323 322 322
312 311 311 310 310 309 310 312 312 312 312 312 313 313 313 313 313 313 314 314 315 315 314 314 314 316 318 317 316 318 317 316 316 315 316 316 316 316 315 316 315 315 315 315 315 315 315 314 314 315 315 316 317 317 318 318 319 319 320 320 321 322 322 322 323 323 322 321 320 320 321 320 319 319 318 318 319 318 319 318 319 320 322 322 322 322
312 311 310 309 309 310 310 311 311 312 312 311 312 312 312 313 313 314 314 314 315 314 314 313 313 315 317 317 316 316 315 315 316 315 315 316 316 315 315 315 315 315 315 315 315 314 314 314 314 313 314 314 314 314 315 315 315 315 316 316 316 317 319 320 321 322 323 323 322 323 322 322 322 321 320 319 319 319 319 319 318 318 319 320 320 320
311 311 311 310 311 311 311 310 310 311 312 312 312 312 311 312 313 314 313 313 314 313 313 312 312 313 316 316 315 315 315 314 315 315 315 315 315 315 315 315 315 315 315 315 315 315 315 314 314 314 313 313 313 313 313 313 313 313 313 313 313 313 314 315 316 317 320 321 323 324 323 323 323 323 323 322 321 321 320 319 319 318 317 319 321 322
311 311 311 311 311 311 311 310 311 311 311 311 312 312 312 312 313 313 312 312 312 312 312 312 312 313 314 314 314 315 315 314 315 315 315 314 314 314 314 314 314 314 314 315 315 315 315 314 314 313 313 312 312 311 311 311 311 311 311 311 311 311 310 311 312 312 314 316 318 319 320 321 322 323 324 324 323 323 322 321 320 320 318 319 322 323
310 310 311 312 311 311 311 311 310 311 311 310 310 311 312 312 312 312 312 312 313 312 311 312 313 313 313 313 313 314 314 314 314 314 313 313 313 314 314 314 313 314 314 314 315 314 314 314 313 313 312 312 311 310 310 310 309 310 310 309 310 309 308 307 308 309 310 311 312 313 314 315 317 318 320 321 322 323 324 324 323 322 321 322 323 323
310 310 311 311 311 311 311 311 311 311 310 310 310 311 311 312 312 313 313 312 312 312 312 313 313 312 313 313 312 312 313 313 313 313 313 312 312 313 314 313 313 312 313 313 314 314 313 313 313 312 311 310 310 310 310 310 310 310 310 309 309 309 308 307 307 307 308 309 309 309 309 310 311 311 312 316 318 319 321 321 321 322 322 322 323 323
310 311 311 311 311 310 310 310 310 310 310 310 310 310 310 311 311 312 312 312 312 312 312 313 313 313 313 313 312 313 313 313 312 313 313 312 312 313 313 313 312 312 312 312 313 312 312 311 311 311 310 309 309 310 309 309 309 309 309 308 308 308 308 307 307 307 307 308 308 307 307 307 308 308 309 311 313 315 317 318 319 320 320 320 321 321
310 310 311 310 310 309 310 310 309 309 309 310 310 310 310 311 311 311 312 312 312 312 312 312 313 313 313 313 312 312 312 312 312 312 312 312 312 313 313 313 312 312 312 312 311 311 311 311 310 310 310 310 309 309 309 307 307 308 308 306 306 306 306 306 306 306 307 307 308 308 308 308 308 308 309 309 310 311 313 315 316 319 319 318 318 318
310 310 310 309 309 309 309 309 309 309 309 309 310 310 310 310 311 311 311 311 311 312 312 312 311 311 312 312 312 311 311 311 312 312 312 311 311 311 312 312 312 312 312 311 310 310 310 310 309 309 309 309 308 308 308 307 307 308 308 306 304 304 305 305 306 307 307 308 308 308 308 308 308 308 309 309 310 310 311 312 313 316 318 318 318 317
309 309 309 309 309 309 309 309 309 309 308 309 310 310 310 310 310 310 310 310 311 311 310 310 310 311 311 311 311 311 311 311 311 311 311 311 311 311 311 312 311 311 311 310 309 309 309 309 309 309 308 308 308 308 307 307 307 308 308 307 306 306 306 306 307 307 308 308 308 308 308 308 308 309 309 309 310 310 311 311 312 313 315 316 316 316
309 308 308 308 308 309 309 309 309 308 307 308 309 310 310 310 309 309 310 310 310 310 310 310 310 310 311 311 310 310 310 311 311 311 310 311 311 312 312 311 311 311 310 309 309 309 308 309 309 309 308 308 308 307 307 307 308 308 308 307 307 307 306 307 307 307 308 307 307 308 308 308 308 309 309 309 310 310 311 312 312 312 313 314 315 316
308 308 308 307 307 308 308 308 308 308 308 309 309 309 309 309 308 308 309 309 309 309 310 310 310 310 310 310 310 310 310 310 310 310 310 310 310 311 311 311 310 310 309 309 309 308 309 309 308 308 308 308 307 306 307 307 308 308 308 308 307 307 307 307 307 307 307 308 308 308 308 309 309 309 309 309 309 310 310 311 312 312 313 313 314 315
307 307 307 307 307 307 306 307 307 308 308 309 309 308 308 308 307 307 307 307 308 309 309 309 309 309 310 310 309 309 309 309 309 309 309 309 309 310 311 310 309 309 308 308 308 308 308 308 308 308 308 307 307 306 307 307 307 307 307 307 308 307 307 307 307 307 307 308 307 308 308 309 310 310 309 309 309 310 310 311 312 312 312 312 313 314
307 306 306 306 306 306 306 306 307 307 307 308 308 308 308 308 307 307 307 307 308 308 309 308 308 308 309 308 308 308 309 309 308 308 308 309 309 310 310 309 308 308 307 307 307 307 307 307 307 307 307 307 307 306 306 306 307 307 307 307 307 307 307 307 306 307 307 307 307 307 308 309 309 310 310 310 310 310 310 311 311 312 313 313 312 313
306 306 306 306 305 306 305 306 306 306 306 307 308 308 308 308 308 308 307 307 307 308 308 307 307 307 308 308 308 308 308 308 308 308 307 307 307 307 307 307 307 307 306 306 306 306 306 306 306 305 305 305 306 306 306 306 306 306 307 306 307 306 306 306 306 306 306 306 306 307 308 308 309 309 309 310 310 310 311 311 311 312 313 313 313 313
306 306 305 305 305 305 305 305 305 305 306 307 308 307 307 307 308 307 306 305 306 306 306 306 307 307 307 307 307 307 307 307 307 307 306 306 306 305 305 306 306 305 305 305 305 305 305 306 305 304 305 305 306 306 306 306 305 306 306 306 306 306 306 306 306 306 306 306 307 307 307 308 308 309 309 309 310 310 310 311 311 312 313 313 313 313
305 305 304 304 305 305 305 304 305 305 305 306 306 306 306 306 306 306 304 304 305 305 304 304 305 306 306 306 306 306 305 306 306 306 305 305 305 305 304 305 304 304 304 304 304 304 304 304 303 304 305 305 305 305 305 305 305 306 306 306 306 306 306 306 306 306 306 306 307 307 307 307 308 309 309 309 310 310 310 311 311 311 312 312 312 312
304 304 304 304 304 304 305 304 304 305 305 305 305 305 306 305 305 304 304 303 304 304 304 304 304 304 304 305 305 305 305 305 305 305 304 305 305 304 304 304 304 304 304 303 303 303 303 302 302 303 304 304 304 305 305 305 305 305 306 306 306 307 307 306 306 306 306 306 307 307 307 307 308 309 309 309 310 310 310 310 310 311 311 311 311 311
304 304 304 304 304 304 304 303 304 304 304 304 304 304 305 304 304 303 303 303 303 304 303 303 303 303 304 304 304 304 304 304 304 304 304 304 304 304 304 303 303 303 303 303 303 302 302 303 303 303 303 303 303 304 304 304 304 304 305 305 305 306 306 306 306 306 306 306 306 307 307 307 308 309 309 309 309 309 309 309 309 309 310 310 310 311
303 303 303 303 303 303 303 303 303 303 303 303 303 303 303 303 302 302 302 302 303 303 303 303 303 303 303 303 303 303 303 303 303 303 303 303 303 303 303 303 303 303 302 302 302 302 302 302 302 303 303 303 303 303 303 304 304 304 304 304 304 305 305 306 306 306 306 306 306 307 307 308 308 308 309 309 309 308 308 308 308 309 309 310 310 310
302 302 302 302 302 302 302 303 303 302 302 302 302 302 302 302 302 301 302 302 302 301 302 302 302 302 301 302 302 302 302 302 302 302 302 302 302 302 302 302 302 302 302 301 301 301 301 301 302 302 303 303 303 303 303 304 304 303 303 304 304 304 305 305 305 306 306 307 307 307 308 308 308 308 308 308 307 307 307 308 308 308 309 309 309 309
301 302 301 301 301 301 301 302 302 302 301 301 301 301 301 301 300 300 301 301 301 301 301 301 301 301 301 301 301 301 301 301 301 301 301 301 301 301 301 301 301 301 301 301 301 301 301 301 301 302 302 302 302 303 303 304 304 304 304 304 304 304 305 305 305 305 306 306 306 306 307 307 307 307 307 307 307 307 307 307 308 308 308 309 309 308
301 301 301 300 300 301 301 301 301 301 301 300 300 300 300 300 300 300 300 300 300 300 300 300 300 300 300 300 300 300 300 300 300 300 300 300 301 301 301 301 301 301 301 301 301 301 301 301 301 302 302 302 302 303 303 304 304 304 304 304 304 305 305 305 305 305 305 305 305 305 305 306 306 306 306 306 307 307 307 307 307 308 308 308 308 307
300 300 300 299 299 299 299 300 300 300 300 300 299 299 299 299 299 299 299 299 299 299 299 299 299 299 299 299 299 299 299 300 300 300 300 300 300 300 300 300 300 300 301 301 301 301 301 301 302 302 302 302 302 303 303 303 303 303 304 304 304 304 304 304 304 304 304 304 304 305 305 305 305 305 306 306 306 307 307 307 307 307 307 307 307 305
299 299 298 299 299 298 299 299 300 299 299 299 299 299 299 299 298 299 298 299 298 298 298 298 298 298 299 299 299 299 299 299 299 299 299 299 299 299 300 300 300 300 300 300 300 300 301 301 302 302 302 302 302 302 303 303 303 303 304 304 304 304 304 303 303 303 303 303 304 304 304 305 305 305 306 306 306 306 306 306 306 307 307 306 305 303
299 298 298 298 298 298 298 299 299 298 298 298 298 298 298 298 298 298 298 298 298 298 298 298 298 298 298 298 298 298 298 298 299 299 299 299 299 299 299 300 299 299 300 300 300 300 301 301 302 302 302 302 302 302 303 303 303 304 304 305 304 304 303 303 303 303 303 303 303 304 304 304 305 305 305 305 305 305 306 306 306 305 304 303 302 300
298 298 298 298 297 297 298 298 298 297 297 298 298 297 297 297 297 298 298 298 298 297 297 298 298 298 298 298 298 298 298 298 299 298 298 298 299 299 299 299 299 299 300 300 300 301 301 301 302 302 302 303 303 303 303 303 304 304 305 304 303 303 302 302 302 302 302 302 303 303 303 304 304 304 304 305 305 305 304 303 303 303 302 300 299 298
298 297 297 297 296 297 297 298 297 297 297 297 297 297 298 298 298 298 298 298 298 298 299 299 299 299 299 299 299 299 299 299 299 299 299 298 298 299 299 299 299 300 300 300 301 301 301 302 302 302 303 303 303 303 303 304 304 304 304 303 302 302 301 301 301 301 301 301 302 302 303 303 303 303 304 304 303 303 302 300 299 299 299 299 297 296
Wind_Speed
6 5 8 7 2 2 3 5 7 8 10 8 5 5 6 5 8 7 10 7 3 5 9 10 9 11 9 6 6 6 8 9 10 11 11 11 12 14 15 18 22 21 17 16 18 22 22 20 21 21 22 23 22 20 18 17 16 14 11 9 8 6 5 6 7 6 6 5 5 4 4 4 4 3 3 4 4 3 3 2 1 2 4 6 8 7
4 6 9 5 4 7 5 5 5 7 7 7 7 6 7 7 6 2 6 6 3 4 9 10 8 9 10 8 6 6 9 11 12 12 13 13 13 14 15 16 18 18 14 16 18 21 22 21 23 24 25 25 24 22 20 18 17 14 12 10 8 7 6 8 9 8 7 6 5 5 5 5 5 4 4 4 3 2 2 3 2 2 2 3 4 4
7 9 8 2 5 3 3 4 5 7 8 7 7 8 7 7 5 3 5 3 3 4 9 9 8 8 11 11 8 8 9 10 13 14 14 15 15 14 13 13 14 15 16 19 20 21 21 22 25 26 26 26 25 24 22 20 18 15 13 12 10 8 8 9 10 9 8 7 6 6 6 6 5 5 6 5 4 2 0 0 1 1 1 2 2 2
5 4 3 7 3 3 3 5 7 7 8 8 8 8 7 7 7 2 5 4 4 4 9 9 7 6 9 10 9 10 11 10 11 13 14 15 15 14 14 12 14 16 17 16 16 20 22 23 26 28 27 27 26 25 24 22 19 17 16 14 12 10 10 10 11 10 9 9 9 9 9 8 7 6 6 5 5 4 3 3 3 2 3 4 3 2
4 5 7 5 2 5 7 7 8 7 7 9 9 9 8 6 7 6 3 3 5 6 8 9 7 6 10 13 11 10 11 9 9 12 13 13 14 13 12 10 11 14 16 16 15 18 22 24 26 29 29 28 28 27 26 24 22 20 18 15 13 11 11 11 11 11 11 10 10 10 10 9 8 7 7 6 5 5 4 3 3 4 6 5 4 4
3 6 5 3 3 7 9 8 9 8 7 8 9 9 10 8 6 7 4 5 6 7 8 8 8 7 10 13 11 8 9 9 10 12 13 15 15 13 12 11 11 11 12 15 17 19 21 23 24 28 30 30 30 29 27 26 24 22 20 17 15 13 13 12 11 11 11 10 10 10 10 9 8 8 8 7 6 5 4 3 3 5 5 4 4 4
3 5 2 3 5 8 9 9 9 8 8 6 4 7 9 9 8 9 8 7 7 6 5 6 7 7 6 8 8 7 9 10 10 10 12 15 15 14 14 14 14 12 11 14 18 19 19 20 21 24 29 32 32 30 28 27 26 24 21 19 16 14 14 14 12 11 11 11 11 10 10 9 9 9 8 8 7 6 5 4 4 4 5 5 4 4
4 5 3 5 7 8 8 9 7 7 8 4 2 4 8 10 10 9 10 8 8 7 4 8 9 8 6 5 5 6 8 10 10 9 10 12 13 14 13 12 12 11 11 13 16 17 17 18 20 21 25 30 32 31 29 29 28 25 22 21 19 16 16 15 13 12 12 12 12 12 11 10 9 9 9 9 8 7 5 4 4 4 4 5 4 3
3 4 6 9 9 8 7 6 4 7 8 2 3 5 7 8 9 8 9 8 7 8 6 9 10 7 8 6 4 7 9 10 10 10 9 10 11 11 9 8 7 5 6 8 10 12 14 16 18 20 21 23 27 31 31 31 29 27 24 23 21 19 17 16 14 13 13 13 13 13 12 11 10 9 10 9 8 7 5 3 4 4 3 4 4 3
4 4 5 8 8 8 6 2 1 6 7 3 3 7 8 8 8 8 8 7 7 7 8 9 8 6 7 5 5 7 9 10 8 8 7 8 9 7 5 4 5 4 4 5 6 7 9 12 15 17 19 20 23 29 32 32 30 28 27 25 23 21 19 18 16 14 15 15 15 14 13 13 12 11 11 10 8 7 6 4 4 4 4 3 3 3
5 4 4 6 9 9 5 2 3 5 6 5 6 8 8 7 7 7 7 7 7 8 10 11 10 8 7 6 5 4 3 5 4 7 6 7 7 5 3 3 4 3 3 3 4 4 5 9 12 15 18 20 22 25 30 34 33 31 29 28 26 23 21 19 17 16 16 17 16 15 15 15 14 13 13 12 10 9 7 6 5 4 5 4 2 2
6 7 6 6 8 9 7 6 7 6 7 7 7 8 7 6 7 6 6 7 7 8 9 9 9 8 7 6 3 4 4 2 2 6 6 5 4 2 1 2 2 2 3 4 3 2 2 5 9 13 17 19 21 22 26 31 34 33 31 30 28 25 23 20 19 18 18 18 18 16 15 16 15 15 14 13 12 10 9 8 6 6 6 5 3 2
7 9 9 7 7 8 8 7 7 7 7 8 8 7 6 6 6 6 6 6 7 7 5 3 5 6 7 6 2 5 6 4 1 1 2 3 1 1 1 2 2 3 4 4 4 3 2 2 5 11 15 18 20 21 22 26 31 32 30 31 29 27 25 22 21 20 19 19 19 18 17 16 16 15 15 13 12 11 10 8 8 7 6 6 5 3
7 9 10 8 6 7 8 7 5 6 6 8 8 6 6 6 6 7 7 6 7 6 2 1 1 5 7 4 3 6 5 5 4 2 3 3 2 1 1 1 3 4 6 6 6 5 5 3 1 7 12 15 18 20 20 21 27 29 29 29 29 27 26 24 22 21 20 20 20 19 17 16 15 15 15 13 12 12 11 9 9 9 7 7 7 6
7 6 7 5 3 5 8 8 6 5 5 7 7 7 7 6 6 7 6 6 6 4 3 3 1 5 5 1 4 7 7 5 6 7 7 5 4 3 2 4 5 6 8 8 7 7 6 4 1 4 8 12 15 17 18 19 22 25 26 26 26 25 25 25 23 22 22 21 20 20 18 17 16 15 15 14 12 12 12 11 10 10 8 8 7 7
9 5 6 5 3 4 8 6 5 7 6 6 7 7 7 6 6 6 6 6 4 4 5 5 4 4 2 4 4 6 8 7 8 9 9 7 6 5 6 7 7 8 9 9 9 7 6 6 3 2 5 8 11 13 15 17 17 19 20 21 23 22 22 24 24 23 22 21 21 21 19 18 16 15 15 14 13 13 13 12 11 11 10 9 8 8
7 4 7 6 5 6 6 5 4 7 5 3 6 7 6 6 6 7 7 5 3 5 7 6 7 6 3 6 8 7 7 7 8 9 9 9 8 8 8 9 9 10 10 10 10 9 8 7 5 3 4 5 7 9 12 14 14 15 15 17 19 20 19 20 21 22 22 22 21 21 21 20 18 16 15 14 14 14 14 13 13 12 11 11 10 10
5 6 3 6 8 5 3 7 8 9 8 6 5 3 4 7 6 5 6 5 5 7 7 6 9 8 6 4 7 9 8 8 8 8 9 9 9 10 9 10 11 11 12 12 11 11 10 9 7 6 4 5 6 7 9 10 11 11 12 13 16 18 17 17 18 20 21 21 21 22 22 22 20 19 17 15 14 14 14 14 13 12 12 13 12 12
3 7 7 8 8 4 5 8 9 10 11 10 8 5 4 6 6 5 5 6 7 8 6 7 9 7 6 4 7 9 9 9 9 8 9 8 9 10 10 11 12 12 12 12 12 12 11 10 9 8 7 6 7 8 8 9 9 10 10 11 12 14 15 14 14 15 17 18 20 20 20 21 22 21 19 17 15 14 14 14 14 13 13 13 13 13
2 6 6 5 5 3 4 6 8 8 10 10 10 8 6 6 6 5 5 5 7 8 7 8 8 6 5 2 6 8 9 10 9 8 8 8 9 10 10 11 12 12 12 13 13 13 12 12 10 9 8 8 9 9 9 9 9 10 11 10 10 11 12 12 12 13 12 13 16 17 16 18 19 20 20 18 16 15 15 15 14 14 14 14 14 15
3 6 6 5 5 5 6 6 7 7 6 7 7 7 7 6 6 6 6 6 7 8 7 7 8 5 1 2 2 4 7 9 8 7 7 9 10 10 11 12 12 12 13 13 14 14 14 13 12 11 9 8 9 9 9 9 9 11 12 12 12 12 11 11 13 16 15 13 14 14 15 15 16 18 19 18 17 16 16 15 15 15 14 15 15 15
4 5 6 7 6 7 7 3 4 7 6 6 6 5 6 6 6 7 7 7 7 8 7 7 8 4 3 2 2 4 4 8 8 8 9 10 11 11 12 12 12 12 12 12 13 13 14 14 13 13 12 10 10 9 9 9 8 9 10 10 12 13 14 12 11 15 17 18 19 18 18 18 17 17 18 18 18 18 17 17 15 15 15 15 16 16
2 4 6 8 8 10 10 3 1 5 8 10 9 8 7 7 7 7 7 6 6 8 8 8 8 3 3 1 1 1 2 5 7 9 10 10 11 11 12 12 12 12 12 12 12 12 13 13 14 14 14 13 13 12 12 11 10 10 9 7 5 7 10 9 8 11 13 16 21 22 22 22 23 22 22 21 21 20 20 19 17 15 15 15 16 17
3 4 7 8 8 11 13 9 7 5 7 10 10 9 9 10 10 9 9 7 7 8 8 7 8 2 2 0 2 4 4 5 7 9 10 10 11 11 12 12 11 11 11 11 11 11 11 11 12 13 13 14 14 14 14 14 13 13 12 10 9 7 5 4 5 7 7 9 13 15 16 19 21 23 25 25 24 23 23 23 22 20 18 18 19 19
1 5 6 7 8 7 10 11 9 7 6 7 8 11 11 11 11 10 9 7 8 11 11 9 9 3 3 2 2 5 6 7 8 10 12 12 11 11 11 11 10 10 10 10 10 10 10 10 10 10 11 12 13 13 14 14 14 13 13 12 11 10 8 5 4 3 3 4 7 9 11 13 15 17 20 23 24 23 22 23 24 23 22 23 23 23
3 6 5 6 8 7 7 7 5 4 5 5 8 11 10 8 10 9 8 8 9 11 12 11 9 4 3 4 4 5 7 8 9 10 12 12 12 12 11 10 9 9 9 9 9 9 9 9 9 10 10 10 11 11 11 12 12 12 12 11 10 10 8 7 7 5 3 2 4 8 9 11 13 14 14 16 18 20 22 25 28 27 26 25 24 23
5 6 8 10 10 10 10 10 9 8 8 8 10 11 9 8 10 9 7 9 9 10 11 11 12 10 6 6 5 5 7 7 8 9 10 10 11 11 10 9 8 7 7 8 8 9 9 9 9 9 9 9 9 9 9 10 10 10 10 9 9 8 7 7 7 6 5 4 1 1 4 7 9 10 10 12 14 17 19 22 26 27 27 25 24 23
5 7 10 13 14 14 15 16 15 14 14 14 13 14 15 14 13 10 9 11 11 10 11 11 12 12 11 8 6 5 6 7 6 8 9 9 9 8 8 7 6 6 7 7 7 8 9 9 9 9 9 9 8 8 8 8 8 8 8 8 7 6 6 5 5 5 4 3 2 1 2 4 5 6 7 9 12 13 15 17 19 21 21 22 23 21
6 8 10 13 15 16 17 17 17 16 15 16 16 16 17 18 17 15 15 15 13 11 12 13 15 14 12 11 9 5 5 7 9 9 10 10 9 8 7 7 6 7 7 7 7 8 8 8 8 8 8 7 7 7 7 7 7 7 6 6 6 5 5 5 4 4 3 3 3 4 4 5 6 7 7 7 8 10 12 13 14 16 18 20 21 20
5 6 9 12 14 15 17 16 16 16 16 17 18 18 18 18 19 18 18 18 17 17 17 17 18 18 14 12 12 10 7 8 10 11 12 12 12 11 10 9 8 8 8 8 8 8 8 8 8 7 7 6 6 5 5 5 5 5 4 4 4 4 4 4 4 3 3 3 4 5 6 6 8 8 8 8 9 9 10 11 11 13 14 14 17 18
3 4 7 9 11 13 15 16 16 17 18 18 19 19 19 19 19 18 18 17 16 17 19 19 18 15 11 11 14 16 15 13 12 13 14 14 14 14 13 12 11 10 9 8 7 7 8 8 7 7 6 5 5 4 4 3 3 3 3 3 3 3 4 5 5 5 4 4 5 6 6 7 8 8 9 9 10 11 11 11 11 12 12 12 13 15
4 5 8 8 10 11 12 15 17 15 16 19 19 19 19 18 17 16 15 15 14 15 16 16 14 10 9 12 15 18 20 18 16 16 16 15 16 16 15 14 12 11 11 10 7 7 7 7 6 6 5 4 4 3 3 3 2 2 2 4 4 4 5 5 5 5 5 5 6 6 7 7 8 9 9 10 10 11 11 12 12 13 13 14 15 15
5 6 7 8 9 10 12 15 13 9 10 12 12 13 16 18 18 17 17 17 17 15 13 13 12 10 11 12 12 13 15 15 16 17 16 15 15 15 15 15 13 11 11 10 8 6 5 5 5 5 4 3 2 2 2 2 1 1 2 3 4 4 5 5 5 6 6 6 7 7 7 8 9 9 10 10 10 11 11 12 13 14 14 15 16 16
8 8 8 8 8 10 12 13 10 8 9 8 5 5 10 13 15 16 15 16 17 15 13 13 13 12 12 11 11 13 15 15 14 13 12 11 11 11 13 14 11 9 10 8 7 6 4 3 3 3 3 2 1 1 2 2 1 2 3 4 4 5 6 6 7 7 8 8 9 9 9 9 9 10 10 10 11 11 12 13 13 14 15 15 16 17
8 8 8 8 8 10 11 10 10 11 10 6 4 3 4 7 9 11 12 13 14 12 12 13 13 12 12 12 12 16 18 17 15 13 13 14 14 13 14 12 9 10 10 8 7 6 4 2 2 1 1 0 1 3 3 3 3 4 4 5 6 6 7 7 8 8 9 9 10 10 10 10 10 11 11 11 12 12 13 13 14 14 15 15 16 17
9 8 8 8 8 9 9 9 11 10 7 6 6 3 2 5 8 9 11 12 10 8 9 10 10 9 10 10 10 12 14 14 13 10 10 11 12 13 14 13 11 10 8 7 7 7 6 4 2 1 1 2 2 3 3 4 5 5 6 7 7 7 8 8 9 9 9 10 10 10 10 10 11 12 12 12 13 13 14 14 14 15 15 15 16 17
10 9 8 8 8 8 9 10 10 10 10 10 7 2 1 3 5 6 9 9 6 4 6 8 9 9 9 9 10 10 10 11 10 6 3 5 4 4 6 8 9 8 7 7 7 8 8 6 3 2 2 3 4 5 5 6 6 6 8 8 9 9 10 10 10 11 11 11 12 11 11 11 12 12 12 13 13 14 14 14 15 15 15 15 16 16
10 9 9 8 8 7 9 9 9 10 10 6 1 5 6 5 4 4 7 7 3 1 5 8 9 8 8 8 10 9 8 8 7 3 0 1 1 3 2 4 6 6 8 9 8 9 9 7 4 4 4 5 6 6 6 7 7 8 9 10 10 11 11 12 13 13 13 14 13 13 13 13 13 13 14 14 14 14 14 14 15 15 15 15 16 16
11 9 9 9 8 8 9 9 8 9 6 1 4 4 5 5 4 3 7 5 1 3 7 9 8 7 6 7 9 9 8 6 3 3 6 3 0 1 3 5 7 7 8 9 9 9 10 8 7 8 7 7 7 7 8 8 9 10 11 11 11 12 13 14 14 14 15 16 15 15 15 15 15 15 15 15 15 15 15 15 15 15 15 15 16 16
10 8 8 9 9 9 9 8 8 6 2 4 3 2 3 4 4 4 7 2 5 5 8 9 9 8 7 9 9 8 7 5 1 3 7 7 4 5 6 6 8 9 9 10 10 9 9 9 10 10 9 9 9 9 10 10 10 11 12 12 12 13 14 15 16 17 17 17 18 18 17 17 17 16 16 16 16 15 16 15 15 15 15 15 16 15
7 7 7 8 9 10 10 9 8 5 2 5 3 2 3 3 4 6 6 2 4 5 7 7 9 10 9 10 10 9 9 8 5 3 6 8 9 10 10 9 10 11 11 12 11 10 11 12 12 11 11 12 12 11 10 11 11 12 12 13 14 14 15 16 17 18 19 19 20 19 19 18 18 18 18 17 16 16 16 15 15 15 15 16 16 16
6 5 6 8 8 9 8 7 8 5 3 7 7 4 3 4 5 3 5 5 6 9 10 11 12 12 12 13 13 13 13 13 12 11 11 12 13 13 13 13 13 13 13 13 13 12 13 13 12 12 13 13 12 12 12 12 13 14 14 15 16 16 17 18 18 19 20 21 21 21 21 20 19 19 18 17 17 17 17 16 16 16 16 16 17 17
5 5 7 7 7 7 8 8 9 5 2 7 8 5 2 3 5 8 10 10 11 12 13 14 14 13 14 15 15 16 16 15 15 15 15 16 16 16 17 16 16 16 15 15 15 15 15 15 15 15 14 14 14 14 13 14 15 16 17 17 18 18 18 19 20 20 21 21 21 22 21 21 20 20 19 18 18 18 18 17 17 16 16 17 17 16
4 5 6 5 3 5 7 6 3 1 1 5 7 6 5 7 10 13 14 15 15 15 15 16 16 15 15 17 18 19 18 18 18 18 18 19 19 19 19 19 19 18 17 16 17 17 17 18 18 17 17 16 15 15 15 16 17 18 19 20 20 19 20 21 21 21 21 21 21 20 20 21 21 20 20 20 20 20 19 19 18 18 18 18 17 15
2 2 5 5 4 6 7 7 6 7 10 11 10 9 11 12 13 15 16 17 18 18 17 17 18 18 17 18 20 21 21 21 21 20 21 22 22 22 22 21 21 20 19 19 19 19 19 19 19 18 18 17 17 17 17 17 18 20 21 21 20 20 21 21 21 22 22 22 22 22 22 22 22 21 22 22 21 21 20 20 20 20 20 20 20 19
3 5 6 5 6 9 11 12 13 14 14 13 12 13 15 16 17 18 19 19 19 18 18 19 19 20 20 21 22 23 23 24 24 24 24 25 25 25 25 24 24 24 23 23 22 21 21 21 20 19 19 19 18 18 17 18 19 21 21 21 21 21 21 22 23 24 24 24 24 24 24 24 23 23 23 22 22 22 21 21 21 20 18 20 21 20
5 7 5 7 7 8 9 9 11 12 13 15 17 18 17 18 19 18 18 19 19 19 20 20 21 22 23 23 24 25 26 26 26 27 27 27 27 27 27 26 26 26 25 24 23 21 21 21 20 19 20 20 19 18 19 19 20 21 22 22 21 21 21 23 24 25 25 26 26 26 25 25 25 25 23 23 23 22 21 21 22 20 20 22 22 19
4 6 4 8 8 8 9 11 14 16 17 17 17 17 17 18 18 19 19 20 21 21 22 23 23 24 25 26 26 27 28 27 27 27 27 27 27 27 26 27 27 26 25 25 24 23 22 21 21 20 20 20 20 20 20 20 21 21 21 21 21 21 21 23 24 25 26 27 27 27 27 26 26 25 24 23 21 19 18 20 23 22 22 22 21 18
6 4 6 8 8 8 10 11 12 13 14 15 16 18 19 20 21 22 23 23 24 25 25 26 26 26 27 28 28 29 30 30 29 29 29 28 28 27 26 26 26 25 24 24 23 22 22 22 22 21 21 21 20 20 20 20 21 20 18 19 19 18 19 21 23 25 26 27 28 28 27 27 29 27 22 20 21 21 20 21 22 21 19 19 20 22
8 7 6 7 7 7 8 10 12 11 11 15 19 21 22 23 24 24 24 24 25 25 25 26 26 25 25 26 26 28 30 30 29 30 30 29 28 27 26 25 25 25 24 23 23 22 22 22 22 21 21 20 19 19 19 19 18 17 17 17 16 16 17 19 21 23 24 25 27 27 25 25 25 22 20 21 24 23 19 15 15 17 20 23 23 21
6 6 6 7 7 8 12 16 18 16 15 19 23 24 24 24 24 24 24 24 23 23 23 24 24 23 23 24 23 24 26 28 28 28 29 30 29 28 27 26 25 24 24 23 22 22 22 22 21 20 20 20 19 18 18 17 16 16 16 15 13 14 16 17 17 19 22 23 24 24 23 22 22 21 21 20 19 18 19 21 21 21 23 23 22 21
Wind_Direction
231 236 232 234 234 35 17 352 349 341 332 323 300 281 269 239 224 198 118 118 244 252 243 228 219 249 248 219 218 201 208 225 219 212 212 215 212 208 210 196 177 176 185 186 179 172 170 171 170 172 177 179 178 175 176 177 176 177 182 183 182 187 188 171 158 157 156 155 160 150 144 147 140 140 132 119 121 140 161 168 209 233 224 238 245 242
229 249 241 245 36 34 4 346 332 311 304 287 272 264 253 246 243 222 104 119 191 250 251 240 227 252 257 232 219 216 219 225 222 217 213 216 219 214 214 206 181 167 177 192 187 177 172 177 181 180 181 183 182 181 182 182 182 182 184 187 187 187 187 172 161 165 168 163 162 155 150 148 140 137 128 122 135 175 217 223 231 247 234 246 254 245
217 241 231 140 47 16 326 304 281 274 275 264 256 258 251 243 240 111 101 167 191 239 256 245 230 241 251 240 210 208 230 230 222 223 218 215 219 216 213 208 190 178 184 191 188 182 177 181 189 187 186 187 185 186 187 186 187 187 185 188 189 185 184 179 168 165 171 170 164 154 148 142 141 148 148 150 148 139 183 30 54 10 56 68 4 317
227 236 158 108 78 265 239 241 249 251 250 249 247 252 251 243 252 199 149 210 225 252 276 275 256 248 255 246 214 208 228 231 219 221 222 217 216 216 213 208 201 193 184 184 188 187 184 186 194 194 191 190 190 192 192 192 192 190 188 189 191 186 183 188 177 167 179 185 171 159 155 151 156 166 157 149 140 124 99 74 73 63 86 91 72 55
256 81 99 115 146 237 240 223 231 249 239 233 239 255 262 245 265 278 172 192 244 235 255 272 264 247 244 238 223 210 216 221 212 210 213 212 212 215 214 213 214 202 185 189 203 199 192 190 196 200 197 193 195 197 196 196 196 193 190 192 194 187 184 193 186 179 190 192 177 168 166 164 166 158 137 133 133 120 105 86 80 76 83 93 93 89
246 90 117 175 204 229 244 235 222 240 253 237 222 239 271 272 263 264 216 195 246 234 209 230 253 250 239 235 228 203 196 210 207 204 207 204 204 208 210 214 225 218 194 199 213 212 203 196 197 204 204 201 200 201 200 200 200 197 193 194 197 190 187 194 192 191 195 185 174 169 164 161 159 149 143 149 144 131 134 127 97 83 87 99 100 96
120 109 182 205 230 232 237 248 229 223 255 261 211 212 249 264 252 250 243 225 249 260 180 194 256 268 244 231 223 198 196 207 201 203 207 201 199 204 206 206 212 215 206 211 218 216 211 204 200 204 208 210 208 204 204 205 206 203 196 196 199 194 192 195 193 194 192 180 173 168 160 159 158 154 154 157 149 144 154 143 110 95 94 96 99 99
133 149 197 202 232 238 230 246 227 211 249 281 29 230 234 249 246 241 249 244 259 275 194 192 239 264 259 234 201 194 208 209 195 198 211 205 200 204 208 207 205 205 201 210 218 216 216 213 209 207 208 212 213 210 208 209 211 208 200 200 200 197 197 197 194 192 189 182 174 166 163 164 161 161 161 158 154 156 161 141 114 100 95 95 95 94
190 190 202 212 226 237 239 256 209 208 243 291 13 272 252 257 253 245 250 249 259 270 247 225 231 250 261 240 180 187 218 228 204 190 207 212 205 201 203 205 202 200 198 209 218 217 218 218 215 212 209 209 212 215 214 213 214 212 205 204 202 198 200 200 195 191 187 182 176 170 167 167 164 166 165 160 158 164 169 150 130 127 122 113 107 103
205 213 220 222 229 238 242 304 193 217 242 292 317 267 254 255 249 244 251 251 252 252 254 250 234 243 261 245 207 199 221 243 212 179 203 214 208 199 185 194 205 210 219 223 225 222 222 223 220 217 212 206 207 213 218 219 218 215 209 209 206 200 201 203 197 192 188 183 179 174 172 171 169 168 166 165 167 172 176 172 161 151 142 131 124 113
167 181 246 239 245 261 272 286 255 249 263 279 278 254 242 245 241 239 245 250 256 245 243 246 236 240 256 248 232 194 215 270 195 165 198 207 199 186 164 212 227 229 250 250 245 237 229 228 224 218 213 208 203 206 216 221 222 219 214 213 210 202 201 204 200 194 189 185 181 178 178 176 174 172 169 172 178 177 177 181 175 162 157 160 166 132
191 187 211 214 233 264 275 252 235 236 250 255 252 246 238 235 233 235 238 235 245 252 250 245 233 231 245 257 246 133 142 259 172 169 189 194 187 134 93 261 265 308 301 294 297 290 254 239 227 218 212 207 202 199 207 218 223 221 218 216 210 203 203 206 203 197 191 189 184 180 183 182 181 183 178 177 184 181 180 185 178 173 175 179 196 191
230 220 209 188 202 240 251 241 217 207 226 240 239 240 244 238 228 232 236 228 238 252 257 251 231 224 246 262 218 149 155 152 145 208 170 172 176 46 290 280 352 347 335 339 352 12 358 291 229 216 209 204 202 200 201 211 218 218 216 215 210 205 205 207 207 202 195 193 189 185 186 186 187 194 190 184 187 185 183 188 186 183 183 185 197 204
230 223 207 192 183 210 238 247 226 204 216 236 238 236 239 242 240 242 240 235 241 239 213 64 283 244 257 269 150 140 128 116 133 146 127 139 134 108 278 351 26 12 14 17 20 29 25 11 209 202 203 202 204 207 207 208 213 213 212 213 208 204 205 208 210 207 200 197 195 191 189 189 191 198 198 191 191 193 188 190 194 193 191 195 201 202
258 233 198 205 158 173 231 252 269 276 250 240 245 240 242 250 253 256 262 264 268 265 206 157 203 254 250 256 104 119 125 129 139 140 138 142 134 118 72 47 43 36 33 33 37 38 39 46 73 186 196 204 206 212 214 210 208 207 208 207 200 197 202 206 211 211 206 201 198 196 192 192 195 200 203 197 196 200 195 193 197 198 195 198 205 203
273 266 156 170 159 183 236 255 278 279 261 243 249 241 239 252 258 266 280 282 298 301 259 205 218 257 181 143 137 124 136 146 144 145 145 137 122 109 90 75 63 53 47 47 52 50 54 63 66 146 182 200 205 210 211 208 204 199 198 198 193 192 196 202 209 213 209 205 203 202 198 197 198 200 205 202 201 204 201 198 198 200 200 199 206 205
267 259 131 157 207 215 251 281 264 257 267 267 251 248 253 260 263 269 269 257 236 260 260 237 239 249 208 178 172 163 162 154 157 161 148 131 119 109 94 81 71 63 58 56 60 61 64 70 76 104 148 177 191 200 200 201 201 193 187 187 187 188 190 195 204 211 213 210 210 209 206 204 203 203 206 205 205 207 207 205 202 203 203 199 203 205
267 268 218 221 229 198 233 279 263 249 265 275 258 272 287 270 266 272 268 256 246 256 254 244 250 249 244 219 169 181 191 169 174 170 144 135 124 107 93 83 74 67 64 61 64 66 65 70 77 92 117 139 155 170 176 182 188 185 182 182 183 186 187 190 199 209 215 216 215 216 215 214 212 210 210 210 211 210 210 210 208 208 208 206 207 205
252 272 259 238 235 194 194 252 259 240 236 251 272 299 288 262 258 251 257 264 261 266 265 257 260 256 253 225 164 194 206 175 178 174 153 149 130 109 98 89 79 71 68 64 64 64 66 72 79 88 96 109 126 135 144 153 158 161 167 170 175 184 188 191 197 206 213 215 216 217 218 220 221 220 219 217 216 216 216 216 215 215 214 213 213 210
246 268 267 240 235 236 216 232 252 240 219 228 255 265 253 258 271 262 257 265 264 267 272 272 267 256 263 238 157 192 208 179 175 177 164 145 124 114 104 95 85 78 74 69 68 66 67 72 76 84 90 99 110 117 125 130 132 142 149 149 155 171 184 189 193 197 199 207 215 219 221 225 226 226 227 226 225 225 224 225 224 224 222 221 220 218
254 259 271 259 236 238 243 241 259 267 240 228 240 244 242 245 258 267 261 256 263 269 271 274 269 256 296 29 105 211 203 176 172 172 155 134 125 118 106 99 93 86 82 78 77 73 72 73 73 77 80 87 94 99 108 111 114 127 138 149 156 162 174 189 204 211 213 215 220 227 230 231 231 231 231 231 232 233 232 233 232 230 229 226 226 223
262 257 263 265 252 245 250 263 305 303 293 278 271 267 266 258 255 263 262 256 262 269 273 276 274 282 41 37 289 258 195 166 171 166 146 135 130 121 111 106 102 97 93 88 87 83 81 81 80 81 81 82 84 85 88 89 92 105 125 155 168 173 180 187 203 216 224 227 228 235 240 242 242 240 240 239 238 238 238 238 237 235 234 230 230 230
12 286 268 265 263 266 272 270 271 291 291 284 279 277 279 274 269 268 268 275 281 276 278 278 273 289 43 359 271 233 157 155 165 157 145 140 134 127 120 114 108 104 101 97 95 91 89 89 88 88 87 86 85 84 86 85 83 85 93 113 137 168 183 189 198 206 219 226 227 233 240 244 245 243 245 248 246 244 244 243 242 240 237 233 232 231
96 260 261 265 264 266 268 247 210 225 266 269 264 263 263 262 264 269 277 289 288 275 274 275 271 255 114 163 109 116 146 155 160 164 157 148 142 138 130 121 117 113 109 105 101 97 95 94 91 90 89 87 84 82 82 83 84 87 91 93 94 106 141 174 201 209 223 229 227 233 237 240 243 243 242 242 241 244 247 246 244 242 241 240 238 235
157 248 246 261 265 254 251 241 222 216 238 256 256 251 254 267 274 274 280 283 272 267 266 266 270 258 136 171 155 154 177 176 177 179 168 158 156 151 139 131 128 123 118 114 108 103 100 95 91 88 87 86 85 82 81 79 80 83 85 86 86 92 106 120 136 165 202 222 227 235 237 238 240 239 241 242 240 242 245 245 245 245 244 245 245 241
270 269 263 263 265 257 251 252 251 246 248 268 269 254 249 269 281 278 278 268 258 265 266 262 270 267 147 175 209 214 216 202 188 182 174 169 168 158 146 142 138 134 132 127 119 114 107 99 95 91 86 84 84 83 82 81 80 79 79 79 79 81 85 82 77 81 92 151 213 225 235 242 238 235 244 248 245 244 245 247 248 249 246 244 243 240
268 265 263 262 263 268 275 284 300 303 284 278 280 271 255 249 259 266 270 266 269 277 269 261 271 275 246 218 214 218 230 219 196 192 195 186 174 163 154 151 150 148 146 140 134 128 118 110 103 97 93 89 88 86 84 82 79 76 73 70 68 67 70 73 67 59 60 62 67 221 242 255 251 243 246 249 250 251 249 247 249 251 248 244 240 237
263 256 254 260 263 268 275 283 289 290 283 279 279 274 268 264 262 260 256 264 279 284 271 269 277 279 275 266 238 212 228 239 226 220 225 213 188 178 169 163 169 174 171 160 145 135 125 116 109 104 99 95 92 91 88 84 80 77 74 66 59 52 47 50 54 47 36 28 21 346 285 285 283 275 263 258 259 260 256 251 250 249 244 239 238 238
261 260 257 261 262 264 268 272 276 277 278 277 273 268 270 272 270 265 259 260 266 267 268 282 290 287 289 292 283 267 259 256 246 238 237 230 216 212 211 205 205 205 200 187 159 139 130 121 113 108 103 98 95 94 90 86 80 78 76 66 56 48 37 29 32 35 17 351 320 289 285 291 290 289 288 281 277 275 273 271 264 255 246 240 241 244
263 266 264 269 270 270 270 271 273 274 274 272 266 262 264 265 264 264 264 263 263 264 268 276 282 280 281 287 288 294 304 289 268 252 241 233 223 221 226 229 228 223 212 195 171 152 137 126 120 114 106 99 94 93 90 85 80 79 77 65 49 37 24 9 359 355 347 328 306 291 289 289 282 280 281 277 277 279 279 281 278 269 263 255 250 249
221 266 273 277 277 273 276 277 273 271 271 271 268 263 260 261 262 261 262 262 262 265 269 272 274 277 282 284 280 277 276 273 264 252 244 237 230 230 235 236 235 231 220 202 182 163 147 135 126 117 110 104 96 92 85 71 62 59 41 11 10 11 350 337 333 329 322 306 298 296 294 290 282 279 277 273 273 273 271 273 274 269 264 258 252 250
210 269 280 276 270 267 273 273 272 278 279 271 265 264 261 261 264 264 264 266 265 268 273 274 272 273 275 274 272 270 267 261 253 247 245 242 240 243 244 239 235 231 221 213 204 180 158 145 134 122 116 111 103 96 77 55 41 49 21 344 339 341 335 334 328 317 310 299 295 294 290 286 282 279 277 273 271 271 269 268 267 264 260 256 254 253
244 264 273 272 269 269 271 271 278 303 298 272 264 268 265 261 261 262 261 263 265 265 266 265 266 275 282 281 280 280 277 271 265 260 257 256 254 249 244 240 238 228 216 217 221 203 170 149 137 126 117 111 102 85 47 26 12 6 349 341 345 341 334 332 319 305 300 297 295 294 289 285 282 278 275 273 271 269 268 266 264 262 259 257 258 258
260 266 269 271 270 270 274 278 282 279 265 264 278 284 277 273 267 263 264 266 267 265 267 272 277 284 291 289 285 283 277 274 278 281 275 270 264 249 244 249 244 217 202 208 222 221 196 156 138 121 110 106 92 349 339 344 325 323 332 336 334 326 322 318 310 303 300 298 297 294 289 285 281 277 274 272 270 268 266 265 263 259 257 255 255 253
260 262 264 266 266 270 276 274 265 256 252 263 287 296 309 306 288 279 279 275 271 272 279 286 287 287 291 293 293 291 285 279 279 282 275 266 260 252 250 248 224 194 190 202 220 237 243 212 165 129 126 112 321 318 324 321 312 314 316 312 308 308 309 306 300 296 294 294 295 294 289 286 282 281 280 277 274 271 266 263 261 259 257 256 254 252
256 258 259 262 260 264 266 252 251 263 263 247 244 237 239 266 273 280 277 270 271 279 285 289 290 286 286 291 296 298 295 287 275 272 280 276 260 248 242 230 205 193 200 217 231 248 260 257 242 208 252 298 308 304 300 298 301 303 299 298 299 298 296 295 293 291 289 288 291 289 284 282 280 279 279 277 274 270 267 265 263 261 259 258 257 256
247 251 252 256 256 257 260 255 257 272 267 247 244 277 339 281 295 302 288 281 279 280 288 291 288 283 280 281 286 290 294 289 270 256 310 333 313 274 241 211 191 199 226 238 244 252 258 262 263 268 288 295 289 287 290 289 291 291 289 288 289 290 292 294 293 292 291 290 290 288 283 280 279 278 276 274 271 268 266 264 262 261 261 260 258 256
241 245 248 252 254 252 258 261 259 262 264 257 315 40 39 29 11 323 289 286 270 255 310 300 282 286 296 295 296 298 294 286 271 242 211 279 5 10 326 207 197 220 242 248 252 255 256 259 273 289 291 287 282 282 283 283 284 284 283 282 284 286 289 290 290 292 293 293 291 289 285 282 281 279 276 274 273 270 267 265 263 261 260 259 259 258
244 242 245 248 250 249 252 258 256 257 269 21 70 64 53 42 25 314 272 274 47 41 353 330 304 300 304 296 300 303 290 277 283 352 360 354 151 2 311 256 242 250 253 257 262 262 261 266 283 293 287 280 281 282 280 281 283 283 280 279 280 283 286 287 289 292 293 293 292 289 287 285 282 279 277 276 274 271 269 267 265 263 260 260 260 259
245 239 239 244 247 246 247 252 256 257 299 50 50 37 32 26 7 292 264 274 59 34 1 351 339 331 314 296 297 295 283 287 344 15 348 332 295 287 286 264 259 263 261 263 268 271 273 281 287 288 281 278 280 280 279 280 281 279 278 279 278 280 282 284 287 290 291 290 290 287 286 285 282 279 278 277 275 272 270 267 265 263 262 262 262 259
241 235 240 246 247 245 246 252 257 254 57 45 7 356 5 332 283 267 271 350 25 329 320 325 321 320 314 301 296 288 285 303 328 323 298 287 278 279 277 269 270 272 269 270 276 282 286 288 286 282 278 279 279 278 278 279 279 278 278 278 277 277 279 282 285 287 289 288 286 285 284 282 279 276 275 275 273 270 268 266 264 263 262 262 261 256
248 240 239 242 247 251 251 256 261 257 38 18 342 326 311 273 259 285 323 326 307 302 306 303 298 299 299 296 297 295 293 296 298 293 289 284 279 277 276 277 279 279 280 283 286 289 290 288 284 281 279 279 278 278 279 279 279 280 279 278 277 278 280 281 282 283 284 284 283 282 281 279 275 273 271 269 268 268 266 265 264 263 261 259 254 244
268 264 247 238 247 257 253 257 264 259 41 12 346 334 304 284 311 332 325 309 300 299 299 296 295 293 291 291 293 294 295 293 290 289 288 287 286 281 277 278 279 280 286 289 289 291 291 288 286 284 283 283 282 281 281 280 280 281 281 279 280 281 280 280 281 282 282 281 280 279 278 276 274 271 268 268 269 268 267 265 263 262 260 254 246 236
268 267 270 268 269 261 251 253 264 218 325 330 328 323 307 303 311 314 308 303 302 300 297 296 295 292 290 290 289 289 289 286 285 285 283 284 287 288 285 283 282 283 286 288 287 288 288 286 285 285 284 285 285 283 281 280 281 282 282 282 282 282 280 279 280 280 280 279 279 278 277 276 273 269 267 269 271 269 267 264 260 259 256 247 238 231
253 284 290 292 293 279 272 281 294 288 289 300 307 305 299 295 296 299 297 294 294 295 295 294 294 295 294 292 291 291 289 285 284 284 283 281 282 284 285 284 282 282 284 286 285 285 284 283 283 283 283 284 283 282 280 279 280 281 281 282 282 280 278 278 278 278 278 278 278 278 277 275 273 270 269 269 268 266 263 259 256 253 249 242 235 231
341 334 301 288 298 292 280 281 290 294 298 304 302 297 296 294 292 293 290 287 287 290 291 289 290 293 292 289 288 288 286 285 284 283 282 281 279 279 280 281 280 280 280 282 283 283 282 282 282 282 282 281 281 280 279 278 279 280 280 281 280 277 276 275 275 275 276 277 276 276 275 274 273 270 268 265 263 260 257 254 251 245 238 234 232 229
24 10 314 277 285 292 285 287 295 298 299 299 297 295 294 292 293 295 294 294 296 296 295 293 291 291 290 288 286 284 283 284 283 281 280 280 279 278 278 278 279 280 280 280 282 284 284 283 283 284 283 283 282 281 281 280 279 279 280 280 278 277 276 275 275 274 274 274 274 274 273 272 270 267 264 261 259 256 252 251 248 240 235 235 231 221
33 31 313 275 274 281 283 288 294 297 294 293 293 294 295 297 299 300 299 298 297 294 292 291 289 288 287 286 285 284 284 283 281 281 281 280 279 278 277 276 277 278 279 279 279 281 283 284 284 284 284 283 283 282 281 280 280 280 281 280 279 278 277 276 275 273 272 272 272 271 270 268 265 263 261 256 250 242 241 245 243 237 234 230 215 191
292 293 294 294 289 281 278 287 304 312 303 293 292 294 297 300 301 299 297 295 293 291 290 288 286 285 284 283 283 283 282 280 279 279 278 278 278 278 277 278 278 278 279 279 279 280 281 282 283 284 284 284 284 283 281 280 281 283 282 281 282 281 279 276 275 273 272 272 270 268 265 262 260 257 250 238 233 234 238 243 241 229 212 192 175 163
283 282 297 302 289 284 296 310 320 318 300 294 298 301 302 303 301 299 298 295 293 293 292 290 289 288 286 284 283 281 280 280 279 278 277 276 276 276 277 278 279 279 279 280 280 280 279 280 281 283 284 284 285 284 283 283 284 283 280 281 283 282 279 278 277 274 272 269 265 261 256 251 248 242 231 229 234 235 228 217 209 196 177 161 154 151
311 313 315 305 295 298 307 310 311 306 298 299 302 303 303 304 303 301 300 300 300 301 301 299 297 295 293 289 286 284 283 282 280 279 278 275 273 273 274 275 276 278 279 280 280 280 279 280 281 282 283 285 284 283 283 285 285 282 280 282 286 286 283 280 276 271 267 262 259 256 246 238 234 230 226 226 219 198 171 155 152 155 156 155 154 154